Tracking 29892 objects as of 21-Nov-2024
HD Live streaming from Space Station
objects crossing your sky now

STARLINK 1061

Track STARLINK 1061 now!
10-day predictions
STARLINK 1061 is classified as:


NORAD ID: 44766
Int'l Code: 2019-074BF
Perigee: 439.5 km
Apogee: 441.1 km
Inclination: 53.1 °
Period: 93.2 minutes
Semi major axis: 6811 km
RCS: Unknown
Launch date: November 11, 2019
Source: United States (US)
Launch site: AIR FORCE EASTERN TEST RANGE (AFETR)
Your satellite tracking list
Your tracking list is empty




NASA's NSSDC Master Catalog

Two Line Element Set (TLE):
1 44766U 19074BF  24325.91668981  .00731800  00000-0  14386-1 0  9994
2 44766  53.0505 186.7652 0001132  94.2652 235.3451 15.44387291277055
Source of the keplerian elements: AFSPC